Total_Precipitation_Accumulation
0.04 0.04 0.08 0.11 0.11 0.15 0.20 0.23 0.32 0.36 0.30 0.33 0.51 0.68 0.78 0.88 1.11 1.24 1.25 1.19 1.24 1.56 2.02 2.20 2.50 2.99 3.80 4.59 5.32 5.49 5.86 5.46 4.84 4.29 3.88 3.78 3.63 3.33 3.20 3.08 3.04 2.96 2.71 2.64
0.06 0.09 0.11 0.07 0.08 0.12 0.16 0.21 0.31 0.32 0.24 0.29 0.52 0.83 0.97 1.02 1.01 1.08 1.12 1.16 1.25 1.62 2.09 2.43 2.95 3.35 3.39 3.95 4.69 4.78 4.52 4.37 3.96 3.62 3.48 3.32 3.30 2.96 2.79 2.67 2.81 2.62 2.47 2.59
0.08 0.10 0.09 0.07 0.10 0.15 0.18 0.22 0.26 0.26 0.26 0.36 0.59 1.07 1.36 1.21 0.93 0.82 0.86 0.96 1.08 1.41 1.92 2.34 2.76 3.21 3.20 3.59 3.70 3.37 3.25 3.36 3.32 3.18 3.11 3.01 3.04 2.85 2.63 2.50 2.59 2.43 2.25 2.33
0.06 0.07 0.06 0.07 0.10 0.11 0.14 0.13 0.14 0.15 0.25 0.49 0.64 1.33 1.69 1.41 1.06 0.85 0.88 1.04 1.09 1.20 1.39 1.66 1.99 2.41 2.63 2.74 2.67 2.65 2.65 2.74 2.95 2.96 2.77 2.62 2.40 2.35 2.33 2.27 2.37 2.41 2.18 2.08
0.06 0.06 0.06 0.07 0.08 0.08 0.10 0.09 0.12 0.18 0.27 0.51 0.71 1.13 1.60 1.51 1.38 1.17 1.02 1.05 1.00 1.02 1.08 1.21 1.30 1.51 1.80 2.07 2.15 2.16 2.50 2.63 2.65 2.65 2.63 2.70 2.45 2.33 2.33 2.47 2.71 2.66 2.31 1.97
0.06 0.07 0.07 0.06 0.07 0.09 0.09 0.11 0.21 0.38 0.55 0.94 0.90 1.02 1.48 1.33 1.17 1.16 1.00 0.85 0.80 0.81 0.85 1.03 1.07 1.10 1.23 1.39 1.55 1.70 2.06 2.31 2.37 2.32 2.32 2.40 2.45 2.49 2.34 2.33 2.44 2.39 2.25 2.04
0.15 0.14 0.11 0.07 0.08 0.10 0.10 0.16 0.48 0.92 1.24 1.40 0.95 0.91 1.16 0.96 0.96 1.07 0.85 0.58 0.55 0.64 0.68 0.86 0.85 0.89 1.01 1.05 1.17 1.42 1.69 1.87 1.95 2.01 2.09 2.17 2.39 2.38 2.19 2.03 2.13 2.17 2.06 1.96
0.18 0.21 0.12 0.06 0.08 0.09 0.11 0.13 0.32 0.58 0.78 0.96 0.98 1.31 1.24 0.81 0.77 0.69 0.51 0.41 0.39 0.55 0.62 0.68 0.62 0.64 0.79 0.87 0.99 1.19 1.36 1.47 1.59 1.79 1.99 2.00 2.15 2.02 1.93 2.10 2.01 1.90 1.72 1.80
0.09 0.09 0.07 0.06 0.07 0.09 0.09 0.09 0.13 0.22 0.33 0.65 1.07 1.42 1.21 0.78 0.71 0.57 0.42 0.36 0.41 0.45 0.59 0.60 0.56 0.56 0.59 0.66 0.78 1.03 1.34 1.38 1.39 1.51 1.73 1.82 1.81 1.83 1.96 2.19 2.12 1.94 1.88 1.78
0.05 0.04 0.06 0.06 0.07 0.08 0.08 0.09 0.11 0.20 0.35 0.60 0.98 1.35 1.45 1.18 0.85 0.59 0.51 0.49 0.58 0.58 0.67 0.72 0.61 0.62 0.63 0.63 0.76 0.90 1.09 1.31 1.47 1.44 1.44 1.44 1.69 1.77 1.91 2.02 1.93 1.92 1.92 1.96
0.05 0.03 0.05 0.06 0.08 0.09 0.10 0.11 0.12 0.15 0.24 0.42 0.82 1.06 0.95 0.94 0.75 0.60 0.62 0.72 0.60 0.57 0.64 0.72 0.57 0.57 0.60 0.68 0.76 0.90 1.04 1.30 1.45 1.33 1.34 1.46 1.64 1.74 1.81 1.98 1.96 1.93 1.96 2.06
0.05 0.04 0.05 0.09 0.13 0.12 0.11 0.12 0.14 0.17 0.21 0.23 0.44 0.72 0.60 0.67 0.68 0.77 0.80 0.75 0.67 0.67 0.70 0.76 0.71 0.81 0.83 0.93 0.95 1.00 1.08 1.25 1.35 1.34 1.42 1.52 1.63 1.68 1.74 1.84 1.95 2.01 2.00 2.10
0.06 0.05 0.08 0.23 0.33 0.24 0.16 0.12 0.14 0.15 0.15 0.20 0.48 0.76 0.61 0.67 0.71 0.78 0.79 0.75 0.83 0.89 0.85 0.85 0.93 1.06 1.03 1.04 1.15 1.17 1.22 1.28 1.39 1.52 1.53 1.49 1.54 1.53 1.61 1.75 1.85 1.98 2.05 2.13
0.08 0.07 0.09 0.23 0.35 0.39 0.29 0.19 0.18 0.15 0.16 0.21 0.35 0.61 0.60 0.69 0.97 0.94 0.97 0.91 0.86 0.89 0.92 0.87 0.94 1.02 1.06 1.12 1.26 1.36 1.34 1.29 1.35 1.40 1.46 1.52 1.54 1.61 1.72 1.83 1.92 2.00 2.02 2.07
0.09 0.07 0.06 0.11 0.19 0.22 0.24 0.22 0.20 0.15 0.14 0.21 0.30 0.47 0.64 0.76 1.01 0.89 0.89 0.98 1.06 0.95 0.93 0.89 0.93 1.01 1.19 1.23 1.20 1.23 1.28 1.31 1.44 1.46 1.43 1.52 1.65 1.70 1.74 1.77 1.81 1.87 1.90 1.85
0.15 0.12 0.11 0.12 0.15 0.16 0.18 0.20 0.17 0.13 0.11 0.12 0.24 0.47 0.67 0.77 0.89 0.89 0.79 0.88 1.08 1.03 0.94 0.95 1.05 1.17 1.19 1.12 1.11 1.10 1.06 1.17 1.37 1.48 1.57 1.66 1.68 1.63 1.72 1.76 1.76 1.78 1.84 1.93
0.29 0.24 0.23 0.22 0.17 0.19 0.27 0.23 0.20 0.17 0.15 0.16 0.29 0.48 0.65 0.82 0.77 0.85 0.85 0.87 0.86 0.87 0.88 0.98 1.08 1.12 1.14 1.21 1.20 1.08 0.96 1.09 1.40 1.51 1.54 1.75 1.87 1.78 1.85 1.86 1.86 1.84 1.88 2.05
0.39 0.41 0.34 0.30 0.33 0.40 0.32 0.28 0.26 0.28 0.29 0.27 0.31 0.46 0.68 0.88 0.85 0.83 0.85 0.85 0.80 0.68 0.76 0.87 0.94 0.98 1.02 1.08 1.10 1.08 1.07 1.12 1.39 1.62 1.72 2.00 2.17 2.02 2.00 2.02 2.04 2.08 2.18 2.25
0.40 0.49 0.50 0.46 0.47 0.50 0.43 0.40 0.42 0.51 0.64 0.54 0.54 0.68 0.75 0.75 0.80 0.88 0.83 0.77 0.71 0.71 0.78 0.82 0.92 1.00 1.12 1.27 1.27 1.25 1.34 1.45 1.62 1.80 1.95 2.21 2.43 2.54 2.49 2.32 2.38 2.47 2.47 2.44
0.37 0.49 0.59 0.61 0.68 0.77 0.72 0.58 0.54 0.69 1.14 0.94 0.77 0.79 0.82 0.84 1.08 1.08 0.81 0.71 0.67 0.71 0.82 0.97 1.13 1.17 1.23 1.43 1.44 1.46 1.59 1.83 1.98 1.97 2.00 2.21 2.46 2.57 2.54 2.50 2.67 2.77 2.67 2.58
0.59 0.61 0.63 0.70 0.80 0.81 0.74 0.66 0.72 1.25 1.67 1.22 1.06 1.05 1.12 1.14 1.10 0.96 0.87 0.87 0.77 0.75 0.86 0.92 0.95 1.10 1.23 1.37 1.51 1.69 1.77 1.90 2.00 2.06 2.07 2.18 2.41 2.69 2.64 2.68 2.75 2.83 2.82 2.82
0.83 0.84 0.81 0.85 1.09 1.23 0.81 0.73 1.13 1.55 1.40 1.45 1.44 1.39 1.32 1.17 1.02 0.91 0.90 0.96 0.86 0.84 0.90 0.95 0.91 1.01 1.20 1.41 1.65 1.77 1.80 1.89 2.06 2.10 2.09 2.15 2.41 2.54 2.59 2.75 2.81 2.91 3.01 2.98
1.01 1.08 1.07 1.16 1.40 1.30 1.03 1.12 1.22 1.32 1.43 1.45 1.39 1.40 1.35 1.28 1.15 1.05 1.04 1.04 1.01 1.05 1.02 1.11 1.13 1.13 1.25 1.44 1.66 1.87 1.91 1.92 1.89 1.87 1.88 2.00 2.19 2.31 2.47 2.59 2.53 2.59 2.73 2.69
1.17 1.01 1.25 1.60 1.58 1.41 1.27 1.22 1.23 1.21 1.28 1.23 1.15 1.12 1.11 1.12 1.12 1.10 1.12 1.19 1.21 1.27 1.22 1.25 1.37 1.37 1.37 1.45 1.63 1.80 1.82 1.85 1.84 1.79 1.77 1.90 2.15 2.28 2.37 2.44 2.41 2.45 2.49 2.54
1.49 1.40 1.62 2.03 1.99 1.79 1.63 1.43 1.37 1.25 1.26 1.23 1.12 1.09 1.04 0.98 1.01 1.03 1.02 1.11 1.17 1.23 1.26 1.26 1.38 1.47 1.44 1.46 1.63 1.75 1.81 1.89 1.95 1.93 1.92 2.05 2.15 2.23 2.40 2.46 2.49 2.49 2.46 2.44
1.50 1.76 2.07 2.32 2.12 2.02 1.95 1.55 1.47 1.49 1.36 1.25 1.25 1.23 1.14 1.01 0.99 1.02 1.03 1.11 1.15 1.22 1.34 1.40 1.47 1.50 1.46 1.45 1.57 1.71 1.90 2.07 2.14 2.07 2.06 2.07 2.05 2.12 2.14 2.17 2.14 2.10 2.03 2.04